Location: ??????????
(42.1626°N, 44.1160°E)
Time: 14:15:38
(UTC+00:00)

Cosmos 2322 Rocket - Pass Details

Date: 03 March 2021
Orbit: 832 x 852 km, 71.0° (Epoch: 13 April)

Event Time Altitude Azimuth Distance (km) Brightness Sun altitude
Rises 15:40:45 0° 202° (SSW) 3,361 5.6 -9.1°
Reaches altitude 10° 15:43:10 10° 202° (SSW) 2,431 4.9 -9.5°
Maximum altitude 15:48:45 89° 120° (ESE) 838 2.2 -10.6°
Drops below altitude 10° 15:54:23 10° 24° (NNE) 2,452 4.4 -11.6°
Sets 15:56:50 0° 25° (NNE) 3,392 5.1 -12.1°
